Regional Weather Roundup
Issued by NWS Binghamton, NY

Home | Current Version | Previous Version | Text Only | Print | Product List | Glossary On
Versions: 1 2 3 4 5 6 7 8 9 10 11 12 13 14 15 16 17 18 19 20 21 22 23 24 25 26 27 28 29 30 31 32 33 34 35 36 37 38 39 40 41 42 43 44 45 46 47 48 49 50
000
ASUS41 KBGM 281210
RWRBGM
RWRBGM
BINGHAMTON REGIONAL WEATHER ROUNDUP
NATIONAL WEATHER SERVICE BINGHAMTON NY
700 AM EST SUN DEC 28 2014

Note: "fair" indicates few or no clouds below 12,000 feet with no
significant weather and/or obstructions to visibility.

* = Station(s) that does not report precipitation, such as rain,
snow, etc, also no thunder or fog.

!NYZ009-015>018-022>025-036-037-044>046-055>057-062-281300
...CENTRAL NEW YORK...

CITY           SKY/WX    TMP DP  RH WIND       PRES   REMARKS
BINGHAMTON     LGT RAIN  41  41 100 SW7       29.84S VSB 1
CORTLAND       RAIN      41  41 100 NW7       29.88R
DANSVILLE      CLOUDY    40  34  79 NW10      29.93R WCI  33
ELMIRA         CLOUDY    46  43  89 MISG      29.87R
ITHACA         LGT RAIN  42  41  97 NW10      29.89R
HAMILTON       CLOUDY    41  37  87 NW6       29.86R
MONTICELLO     CLOUDY    39  37  93 CALM      29.86F
NORWICH        LGT RAIN  43  41  93 CALM      29.85S
ONEONTA        RAIN      39  39 100 W8        29.82S WCI  34
PENN YAN       CLOUDY    41  37  86 W10       29.89R
ROME           LGT RAIN  40  39  97 W9        29.87R WCI  34
SIDNEY         RAIN      43  43 100 NW3       29.85F
SYRACUSE       CLOUDY    40  37  89 W9        29.89R WCI  34
$$

!PAZ038>040-043-044-047-048-072-281300
...NORTHEAST PENNSYLVANIA...

CITY           SKY/WX    TMP DP  RH WIND       PRES   REMARKS
HAZLETON       DRIZZLE   41  37  87 CALM      29.88F
SCRANTON       LGT RAIN  47  37  68 W7        29.86F
TOWANDA*       MOCLDY    43  43 100 CALM      29.89R
$$
&&
KEY
WCI = WIND CHILL INDEX
VSB = VISIBILITY
HX  = HEAT INDEX
$$



USA.gov is the U.S. government's official web portal to all federal, state and local government web resources and services.